C/2018 KJ3 ( Lemmon )

Japanese version
Home page
Updated on October 28, 2018

---------------------------------------------------------------------

* Profile

Discovery Date May 17, 2018
Magnitude 19.9 mag
Discoverer H. Groeller and G. J. Leonard (Mount Lemmon Survey)

* Pictures

* Orbital Elements

Epoch 2019 Aug. 25.0 TT = JDT 2458720.5
T 2019 Sept.  9.51915 TT                                MPCW
q   3.6283392            (2000.0)            P               Q
z  +0.0012259      Peri.  217.62964     -0.42218825     -0.59321757
 +/-0.0000116      Node    91.59474     -0.57114978     +0.76125984
e   0.9955519      Incl.  136.70761     -0.70394958     -0.26187089
From 159 observations 2018 May 17-Oct. 8, mean residual 0".4.

* Finding Charts

* Magnitudes Graph

        m1 = 8.5 + 5 log d + 10.0 log r

---------------------------------------------------------------------

The orbital elements are published on M.P.E.C. 2018-U70.
The charts are made with StellaNavigator Ver.10 (AstroArts).
The magnitudes graphs are made with Comet for Windows.

---------------------------------------------------------------------

Copyright(C) Seiichi Yoshida (comet@aerith.net). All rights reserved.